GW5839 Weather Reports


time (UTC)temp
F
wind
direction
speed
knots
gust
knots
rain 1hr
in
rain 24hr
in
rain mn
in
humidity
%
barometer
mb
20260505112517 53 0.0 0.0 0.00 0.00 0.00 91 1015.5
20260505112009 53 0.0 0.0 0.00 0.00 0.00 91 1015.5
20260505111513 53 0.0 0.0 0.00 0.00 0.00 91 1015.1
20260505111020 53 0.0 0.0 0.00 0.00 0.00 91 1015.5
20260505110511 53 0.0 0.0 0.00 0.00 0.00 91 1015.5
20260505102016 53 0.0 0.0 0.00 0.00 0.00 91 1014.8
20260505101511 53 0.0 0.0 0.00 0.00 0.00 91 1014.8
20260505101016 53 0.0 0.0 0.00 0.00 0.00 91 1014.8
20260505100509 53 0.0 0.0 0.00 0.00 0.00 91 1014.8
20260505100011 53 0.0 0.0 0.00 0.00 0.00 91 1014.8
20260505095514 53 0.0 0.0 0.00 0.00 0.00 91 1014.8
20260505095020 53 0.0 0.0 0.00 0.00 0.00 91 1014.8
20260505094552 53 0.0 0.0 0.00 0.00 0.00 91 1014.8
20260505094015 53 0.0 0.0 0.00 0.00 0.00 91 1014.8
20260505093549 53 0.0 0.0 0.00 0.00 0.00 91 1014.4
20260505093014 53 0.0 0.0 0.00 0.00 0.00 90 1014.4
20260505092516 53 0.0 0.0 0.00 0.00 0.00 90 1014.4
20260505092010 53 0.0 0.0 0.00 0.00 0.00 90 1014.4
20260505091511 53 0.0 0.0 0.00 0.00 0.00 90 1014.4
20260505091015 53 0.0 0.0 0.00 0.00 0.00 90 1014.4
20260505090508 54 0.0 0.0 0.00 0.00 0.00 90 1014.4
20260505090012 54 0.0 0.0 0.00 0.00 0.00 90 1014.4
20260505085517 54 0.0 0.0 0.00 0.00 0.00 89 1014.4
20260505085008 54 0.0 0.0 0.00 0.00 0.00 89 1014.4
20260505084511 54 0.0 0.0 0.00 0.00 0.00 89 1014.4
20260505084039 54 0.0 0.0 0.00 0.00 0.00 89 1014.1
20260505083510 54 0.0 0.0 0.00 0.00 0.00 88 1014.1
20260505082506 54 0.0 0.0 0.00 0.00 0.00 88 1014.1
20260505082019 54 0.0 0.0 0.00 0.00 0.00 88 1014.1
20260505081525 54 0.0 0.0 0.00 0.00 0.00 88 1014.1
20260505081039 54 0.0 0.0 0.00 0.00 0.00 88 1014.1
20260505080528 54 0.0 0.0 0.00 0.00 0.00 87 1014.1
20260505080013 55 0.0 0.0 0.00 0.00 0.00 87 1014.1
20260505075507 55 0.0 0.0 0.00 0.00 0.00 87 1014.1
20260505075010 55 0.0 0.0 0.00 0.00 0.00 87 1014.1
20260505074524 55 0.0 0.0 0.00 0.00 0.00 86 1014.1
20260505074012 55 0.0 0.0 0.00 0.00 0.00 86 1014.1
20260505073520 55 0.0 0.0 0.00 0.00 0.00 86 1013.8
20260505073014 55 0.0 0.0 0.00 0.00 0.00 85 1013.8
20260505072513 55 0.0 0.0 0.00 0.00 0.00 85 1013.8
20260505071534 56 0.0 0.0 0.00 0.00 0.00 84 1013.8
20260505071056 56 0.0 0.0 0.00 0.00 0.00 84 1013.4
20260505070518 56 0.0 0.0 0.00 0.00 0.00 84 1013.4
20260505070013 56 0.0 0.0 0.00 0.00 0.00 83 1013.4
20260505065510 57 0.0 0.0 0.00 0.00 0.00 83 1013.4
20260505065019 57 0.0 0.0 0.00 0.00 0.00 82 1013.4
20260505064509 57 0.0 0.0 0.00 0.00 0.00 82 1013.4
20260505064023 57 0.0 0.0 0.00 0.00 0.00 82 1013.4
20260505063527 58 0.0 0.0 0.00 0.00 0.00 81 1013.1
20260505063009 58 0.0 0.0 0.00 0.00 0.00 81 1013.4
20260505062510 58 0.0 0.0 0.00 0.00 0.00 81 1013.1
20260505061530 59 0.0 0.0 0.00 0.00 0.00 80 1013.1
20260505061036 59 0.0 0.0 0.00 0.00 0.00 79 1013.1
20260505060542 59 0.0 0.0 0.00 0.00 0.00 79 1012.7
20260505060049 59 0.0 0.0 0.00 0.00 0.00 79 1012.7
20260505055552 59 0.0 0.0 0.00 0.00 0.00 78 1012.7
20260505055046 60 0.0 0.0 0.00 0.00 0.00 78 1012.7
20260505054516 60 0.0 0.0 0.00 0.00 0.00 77 1012.7
20260505054014 60 0.0 0.0 0.00 0.00 0.00 77 1012.7
20260505053521 60 0.0 0.0 0.00 0.00 0.00 77 1012.7
20260505052533 60 0.0 0.0 0.00 0.00 0.00 76 1012.4
20260505052021 61 0.0 0.0 0.00 0.00 0.00 76 1012.4
20260505051528 61 0.0 0.0 0.00 0.00 0.00 76 1012.4
20260505051008 61 0.0 0.0 0.00 0.00 0.00 75 1012.4
20260505050523 61 0.0 0.0 0.00 0.00 0.00 75 1012.4
20260505041515 65 0.0 0.0 0.00 0.00 0.00 69 1011.7
20260505040549 66 0.0 0.0 0.00 0.00 0.00 68 1011.7
20260505035509 66 0.0 0.0 0.00 0.00 0.00 65 1011.3
20260505033528 68 0.0 0.0 0.00 0.00 0.00 58 1011.0
20260505032512 68 0.0 0.0 0.00 0.00 0.00 58 1011.0
20260505031013 70 0.0 0.0 0.00 0.00 0.00 56 1011.0
20260505030514 70 0.0 0.0 0.00 0.00 0.00 56 1011.0
20260505030020 70 0.0 0.0 0.00 0.00 0.00 56 1010.7
20260505025508 70 0.0 0.0 0.00 0.00 0.00 56 1010.7
20260505025008 71 0.0 0.0 0.00 0.00 0.00 56 1010.7
20260505022518 72 0.0 0.0 0.00 0.00 0.00 55 1010.7
20260505022014 72 0.0 0.0 0.00 0.00 0.00 54 1010.7
20260505021551 73 0.0 0.0 0.00 0.00 0.00 54 1010.7
20260505021046 73 0.0 0.0 0.00 0.00 0.00 54 1010.7
20260505015512 74 0.0 0.0 0.00 0.00 0.00 52 1010.3
20260505014518 76 0.0 0.0 0.00 0.00 0.00 50 1010.3
20260505013046 76 0.0 0.0 0.00 0.00 0.00 47 1010.3
20260505012020 77 0.0 0.0 0.00 0.00 0.00 46 1010.3
20260505001548 80 0.0 0.0 0.00 0.00 0.00 42 1011.3
20260505001021 79 0.0 0.0 0.00 0.00 0.00 42 1011.3
20260504233527 79 0.0 0.0 0.00 0.00 0.00 43 1010.7
20260504232040 80 0.0 0.0 0.00 0.00 0.00 42 1010.7
20260504231511 79 0.0 0.0 0.00 0.00 0.00 43 1011.0
20260504231030 80 0.0 0.0 0.00 0.00 0.00 42 1010.7
20260504225522 79 0.0 0.0 0.00 0.00 0.00 43 1011.3
20260504224600 79 0.0 0.0 0.00 0.00 0.00 43 1012.0
20260504224028 79 0.0 0.0 0.00 0.00 0.00 42 1012.0
20260504223533 79 0.0 0.0 0.00 0.00 0.00 43 1012.4
20260504223016 79 0.0 0.0 0.00 0.00 0.00 42 1013.4
20260504222506 80 0.0 0.0 0.00 0.00 0.00 42 1011.7
20260504214510 78 0.0 0.0 0.00 0.00 0.00 45 1011.3
20260504214014 79 0.0 0.0 0.00 0.00 0.00 46 1011.3
20260504213023 79 0.0 0.0 0.00 0.00 0.00 45 1011.3
20260504212515 79 0.0 0.0 0.00 0.00 0.00 47 1011.7
20260504212009 80 0.0 0.0 0.00 0.00 0.00 45 1011.7
20260504211006 78 0.0 0.0 0.00 0.00 0.00 45 1011.7
20260504210510 77 0.0 0.0 0.00 0.00 0.00 46 1011.7
20260504205508 77 0.0 0.0 0.00 0.00 0.00 45 1011.7
20260504205019 78 0.0 0.0 0.00 0.00 0.00 44 1011.7
20260504204514 78 0.0 0.0 0.00 0.00 0.00 44 1011.7
20260504204026 77 0.0 0.0 0.00 0.00 0.00 43 1011.7
20260504203531 77 0.0 0.0 0.00 0.00 0.00 41 1011.7
20260504203016 77 0.0 0.0 0.00 0.00 0.00 39 1011.7
20260504202508 77 0.0 0.0 0.00 0.00 0.00 40 1011.7
20260504202033 77 0.0 0.0 0.00 0.00 0.00 41 1011.7
20260504201516 78 0.0 0.0 0.00 0.00 0.00 41 1011.7
20260504201015 77 0.0 0.0 0.00 0.00 0.00 41 1012.0
20260504200513 77 0.0 0.0 0.00 0.00 0.00 42 1012.0
20260504200025 76 0.0 0.0 0.00 0.00 0.00 40 1012.0
20260504194547 76 0.0 0.0 0.00 0.00 0.00 43 1011.7
20260504194017 75 0.0 0.0 0.00 0.00 0.00 43 1011.7
20260504193508 75 0.0 0.0 0.00 0.00 0.00 44 1011.7
20260504193009 75 0.0 0.0 0.00 0.00 0.00 44 1011.7
20260504192007 74 0.0 0.0 0.00 0.00 0.00 45 1012.0
20260504191514 74 0.0 0.0 0.00 0.00 0.00 45 1012.0
20260504190512 74 0.0 0.0 0.00 0.00 0.00 46 1012.0
20260504190031 74 0.0 0.0 0.00 0.00 0.00 45 1012.0
20260504185527 75 0.0 0.0 0.00 0.00 0.00 46 1012.0
20260504185013 73 0.0 0.0 0.00 0.00 0.00 48 1012.4
20260504184518 73 0.0 0.0 0.00 0.00 0.00 47 1012.4
20260504184021 73 0.0 0.0 0.00 0.00 0.00 45 1012.4
20260504183524 73 0.0 0.0 0.00 0.00 0.00 46 1012.4
20260504183028 73 0.0 0.0 0.00 0.00 0.00 47 1012.4
20260504182037 71 0.0 0.0 0.00 0.00 0.00 49 1012.4
20260504181545 72 0.0 0.0 0.00 0.00 0.00 49 1012.0
20260504181030 72 0.0 0.0 0.00 0.00 0.00 46 1012.0
20260504180025 72 0.0 0.0 0.00 0.00 0.00 47 1011.7
20260504175023 72 0.0 0.0 0.00 0.00 0.00 47 1012.0
20260504173515 70 0.0 0.0 0.00 0.00 0.00 50 1012.4
20260504172511 69 0.0 0.0 0.00 0.00 0.00 51 1012.4
20260504172015 69 0.0 0.0 0.00 0.00 0.00 52 1012.4
20260504171524 69 0.0 0.0 0.00 0.00 0.00 52 1012.4
20260504171024 68 0.0 0.0 0.00 0.00 0.00 54 1012.7
20260504170514 68 0.0 0.0 0.00 0.00 0.00 54 1012.4